Time,TemperatureF,DewpointF,PressureIn,WindDirection,WindDirectionDegrees,WindSpeedMPH,WindSpeedGustMPH,Humidity,HourlyPrecipIn,Conditions,Clouds,dailyrainin,SoftwareType,DateUTC
2013-07-08 00:01:00,0.0,0.0,0.00,South,180,4.9,5.6,0,0.00,,,-99.99,Homeseer,2013-07-08 04:01:00,
2013-07-08 00:11:00,0.0,0.0,0.00,South,180,4.5,4.5,0,0.00,,,-99.99,Homeseer,2013-07-08 04:11:00,
2013-07-08 00:21:00,0.0,0.0,0.00,SSE,157,4.0,7.6,0,0.00,,,-99.99,Homeseer,2013-07-08 04:21:00,
2013-07-08 00:31:00,0.0,0.0,0.00,North,0,4.3,4.3,0,0.00,,,-99.99,Homeseer,2013-07-08 04:31:00,
2013-07-08 00:41:00,0.0,0.0,0.00,ESE,112,3.4,3.4,0,0.00,,,-99.99,Homeseer,2013-07-08 04:41:00,
2013-07-08 00:51:00,0.0,0.0,0.00,SE,135,5.4,5.4,0,0.00,,,-99.99,Homeseer,2013-07-08 04:51:00,
2013-07-08 01:01:00,0.0,0.0,0.00,North,0,3.6,5.6,0,0.00,,,-99.99,Homeseer,2013-07-08 05:01:00,
2013-07-08 01:11:00,0.0,0.0,0.00,SSE,157,3.6,3.6,0,0.00,,,-99.99,Homeseer,2013-07-08 05:11:00,
2013-07-08 01:21:00,0.0,0.0,0.00,South,180,4.7,5.4,0,0.00,,,-99.99,Homeseer,2013-07-08 05:21:00,
2013-07-08 01:31:00,0.0,0.0,0.00,ESE,112,3.1,3.4,0,0.00,,,-99.99,Homeseer,2013-07-08 05:31:00,
2013-07-08 01:41:00,0.0,0.0,0.00,South,180,5.8,5.8,0,0.00,,,-99.99,Homeseer,2013-07-08 05:41:00,
2013-07-08 01:51:00,0.0,0.0,0.00,SE,135,4.0,5.4,0,0.00,,,-99.99,Homeseer,2013-07-08 05:51:00,
2013-07-08 02:01:00,0.0,0.0,0.00,North,0,2.5,2.5,0,0.00,,,-99.99,Homeseer,2013-07-08 06:01:00,
2013-07-08 02:11:00,0.0,0.0,0.00,SSE,157,4.3,4.3,0,0.00,,,-99.99,Homeseer,2013-07-08 06:11:00,
2013-07-08 02:21:00,0.0,0.0,0.00,SE,135,3.1,3.8,0,0.00,,,-99.99,Homeseer,2013-07-08 06:21:00,
2013-07-08 02:31:00,0.0,0.0,0.00,SE,135,3.1,3.1,0,0.00,,,-99.99,Homeseer,2013-07-08 06:31:00,
2013-07-08 02:41:00,0.0,0.0,0.00,SSE,157,2.9,3.4,0,0.00,,,-99.99,Homeseer,2013-07-08 06:41:00,
2013-07-08 02:51:00,0.0,0.0,0.00,North,0,2.5,3.6,0,0.00,,,-99.99,Homeseer,2013-07-08 06:51:00,
2013-07-08 03:01:00,0.0,0.0,0.00,SE,135,3.1,5.6,0,0.00,,,-99.99,Homeseer,2013-07-08 07:01:00,
2013-07-08 03:11:00,0.0,0.0,0.00,South,180,6.3,9.8,0,0.00,,,-99.99,Homeseer,2013-07-08 07:11:00,
2013-07-08 03:21:00,0.0,0.0,0.00,South,180,4.3,4.3,0,0.00,,,-99.99,Homeseer,2013-07-08 07:21:00,
2013-07-08 03:31:00,0.0,0.0,0.00,SSE,157,2.9,2.9,0,0.00,,,-99.99,Homeseer,2013-07-08 07:31:00,
2013-07-08 03:41:00,0.0,0.0,0.00,SSE,157,3.4,4.0,0,0.00,,,-99.99,Homeseer,2013-07-08 07:41:00,
2013-07-08 03:51:00,0.0,0.0,0.00,North,0,4.7,4.7,0,0.00,,,-99.99,Homeseer,2013-07-08 07:51:00,
2013-07-08 04:01:00,0.0,0.0,0.00,South,180,4.3,4.3,0,0.00,,,-99.99,Homeseer,2013-07-08 08:01:00,
2013-07-08 04:11:00,0.0,0.0,0.00,SE,135,4.3,4.3,0,0.00,,,-99.99,Homeseer,2013-07-08 08:11:00,
2013-07-08 04:21:00,0.0,0.0,0.00,SSE,157,5.4,6.0,0,0.00,,,-99.99,Homeseer,2013-07-08 08:21:00,
2013-07-08 04:31:00,0.0,0.0,0.00,SE,135,2.2,2.2,0,0.00,,,-99.99,Homeseer,2013-07-08 08:31:00,
2013-07-08 04:41:00,0.0,0.0,0.00,SSE,157,4.9,5.4,0,0.00,,,-99.99,Homeseer,2013-07-08 08:41:00,
2013-07-08 04:51:00,0.0,0.0,0.00,SSE,157,5.4,5.4,0,0.00,,,-99.99,Homeseer,2013-07-08 08:51:00,
2013-07-08 05:01:00,0.0,0.0,0.00,ESE,112,5.4,5.4,0,0.00,,,-99.99,Homeseer,2013-07-08 09:01:00,
2013-07-08 05:11:00,0.0,0.0,0.00,ESE,112,4.5,4.5,0,0.00,,,-99.99,Homeseer,2013-07-08 09:11:00,
2013-07-08 05:21:00,0.0,0.0,0.00,ESE,112,3.1,3.1,0,0.00,,,-99.99,Homeseer,2013-07-08 09:21:00,
2013-07-08 05:31:00,0.0,0.0,0.00,South,180,2.7,2.9,0,0.00,,,-99.99,Homeseer,2013-07-08 09:31:00,
2013-07-08 05:39:00,0.0,0.0,0.00,South,180,2.7,2.9,0,0.00,,,-99.99,Homeseer,2013-07-08 09:39:00,
2013-07-08 05:49:00,0.0,0.0,0.00,South,180,2.7,2.9,0,0.00,,,-99.99,Homeseer,2013-07-08 09:49:00,
2013-07-08 05:59:00,0.0,0.0,0.00,South,180,3.4,3.4,0,0.00,,,-99.99,Homeseer,2013-07-08 09:59:00,
2013-07-08 06:09:00,0.0,0.0,0.00,South,180,2.9,3.4,0,0.00,,,-99.99,Homeseer,2013-07-08 10:09:00,
2013-07-08 06:19:00,0.0,0.0,0.00,SSE,157,6.3,6.3,0,0.00,,,-99.99,Homeseer,2013-07-08 10:19:00,
2013-07-08 06:29:00,0.0,0.0,0.00,North,0,2.9,2.9,0,0.00,,,-99.99,Homeseer,2013-07-08 10:29:00,
2013-07-08 06:39:00,0.0,0.0,0.00,ESE,112,4.7,6.0,0,0.00,,,-99.99,Homeseer,2013-07-08 10:39:00,
2013-07-08 06:49:00,0.0,0.0,0.00,SSE,157,3.8,5.6,0,0.00,,,-99.99,Homeseer,2013-07-08 10:49:00,
2013-07-08 06:59:00,0.0,0.0,0.00,ESE,112,4.9,4.9,0,0.00,,,-99.99,Homeseer,2013-07-08 10:59:00,
2013-07-08 07:09:00,0.0,0.0,0.00,SSE,157,4.3,7.4,0,0.00,,,-99.99,Homeseer,2013-07-08 11:09:00,
2013-07-08 07:19:00,0.0,0.0,0.00,North,0,2.9,4.0,0,0.00,,,-99.99,Homeseer,2013-07-08 11:19:00,
2013-07-08 07:29:00,0.0,0.0,0.00,SSE,157,3.8,3.8,0,0.00,,,-99.99,Homeseer,2013-07-08 11:29:00,
2013-07-08 07:39:00,0.0,0.0,0.00,ESE,112,4.3,5.6,0,0.00,,,-99.99,Homeseer,2013-07-08 11:39:00,
2013-07-08 07:49:00,0.0,0.0,0.00,SSE,157,3.8,3.8,0,0.00,,,-99.99,Homeseer,2013-07-08 11:49:00,
2013-07-08 07:59:00,0.0,0.0,0.00,SE,135,3.4,4.9,0,0.00,,,-99.99,Homeseer,2013-07-08 11:59:00,
2013-07-08 08:09:00,0.0,0.0,0.00,ESE,112,3.4,3.6,0,0.00,,,-99.99,Homeseer,2013-07-08 12:09:00,
2013-07-08 08:19:00,0.0,0.0,0.00,SSE,157,5.8,5.8,0,0.00,,,-99.99,Homeseer,2013-07-08 12:19:00,
2013-07-08 08:29:00,0.0,0.0,0.00,SSE,157,3.1,3.1,0,0.00,,,-99.99,Homeseer,2013-07-08 12:29:00,
2013-07-08 08:39:00,0.0,0.0,0.00,North,0,6.3,6.3,0,0.00,,,-99.99,Homeseer,2013-07-08 12:39:00,
2013-07-08 08:49:00,0.0,0.0,0.00,SSE,157,3.4,3.4,0,0.00,,,-99.99,Homeseer,2013-07-08 12:49:00,
2013-07-08 08:59:00,0.0,0.0,0.00,North,0,3.4,6.0,0,0.00,,,-99.99,Homeseer,2013-07-08 12:59:00,
2013-07-08 09:09:00,0.0,0.0,0.00,WSW,247,5.4,5.6,0,0.00,,,-99.99,Homeseer,2013-07-08 13:09:00,
2013-07-08 09:19:00,0.0,0.0,0.00,SE,135,2.9,4.3,0,0.00,,,-99.99,Homeseer,2013-07-08 13:19:00,
2013-07-08 09:29:00,0.0,0.0,0.00,South,180,4.0,6.0,0,0.00,,,-99.99,Homeseer,2013-07-08 13:29:00,
2013-07-08 09:39:00,0.0,0.0,0.00,East,90,4.0,4.0,0,0.00,,,-99.99,Homeseer,2013-07-08 13:39:00,
2013-07-08 09:49:00,0.0,0.0,0.00,ESE,112,3.4,5.4,0,0.00,,,-99.99,Homeseer,2013-07-08 13:49:00,
2013-07-08 09:59:00,0.0,0.0,0.00,SSE,157,3.6,3.6,0,0.00,,,-99.99,Homeseer,2013-07-08 13:59:00,
2013-07-08 10:09:00,0.0,0.0,0.00,ESE,112,3.1,3.1,0,0.00,,,-99.99,Homeseer,2013-07-08 14:09:00,
2013-07-08 10:19:00,0.0,0.0,0.00,SE,135,4.5,5.6,0,0.00,,,-99.99,Homeseer,2013-07-08 14:19:00,
2013-07-08 10:29:00,0.0,0.0,0.00,SSE,157,4.3,4.3,0,0.00,,,-99.99,Homeseer,2013-07-08 14:29:00,
2013-07-08 10:39:00,0.0,0.0,0.00,SE,135,4.7,4.7,0,0.00,,,-99.99,Homeseer,2013-07-08 14:39:00,
2013-07-08 10:49:00,0.0,0.0,0.00,SSE,157,3.1,5.6,0,0.00,,,-99.99,Homeseer,2013-07-08 14:49:00,
2013-07-08 10:59:00,0.0,0.0,0.00,SSE,157,4.5,4.5,0,0.00,,,-99.99,Homeseer,2013-07-08 14:59:00,
2013-07-08 11:09:00,0.0,0.0,0.00,SE,135,3.4,7.2,0,0.00,,,-99.99,Homeseer,2013-07-08 15:09:00,
2013-07-08 11:19:00,0.0,0.0,0.00,SSE,157,3.4,3.8,0,0.00,,,-99.99,Homeseer,2013-07-08 15:19:00,
2013-07-08 11:29:00,0.0,0.0,0.00,ESE,112,3.6,3.6,0,0.00,,,-99.99,Homeseer,2013-07-08 15:29:00,
2013-07-08 11:39:00,0.0,0.0,0.00,ESE,112,3.6,3.8,0,0.00,,,-99.99,Homeseer,2013-07-08 15:39:00,
2013-07-08 11:49:00,0.0,0.0,0.00,ESE,112,4.3,4.9,0,0.00,,,-99.99,Homeseer,2013-07-08 15:49:00,
2013-07-08 11:59:00,0.0,0.0,0.00,South,180,4.7,6.5,0,0.00,,,-99.99,Homeseer,2013-07-08 15:59:00,
2013-07-08 12:09:00,0.0,0.0,0.00,ESE,112,5.4,5.4,0,0.00,,,-99.99,Homeseer,2013-07-08 16:09:00,
2013-07-08 12:19:00,0.0,0.0,0.00,ESE,112,4.5,4.5,0,0.00,,,-99.99,Homeseer,2013-07-08 16:19:00,
2013-07-08 12:29:00,0.0,0.0,0.00,ESE,112,4.7,4.7,0,0.00,,,-99.99,Homeseer,2013-07-08 16:29:00,
2013-07-08 12:39:00,0.0,0.0,0.00,ESE,112,3.6,3.6,0,0.00,,,-99.99,Homeseer,2013-07-08 16:39:00,
2013-07-08 12:49:00,0.0,0.0,0.00,North,0,5.4,6.0,0,0.00,,,-99.99,Homeseer,2013-07-08 16:49:00,
2013-07-08 12:59:00,0.0,0.0,0.00,SSE,157,7.2,7.2,0,0.00,,,-99.99,Homeseer,2013-07-08 16:59:00,
2013-07-08 13:09:00,0.0,0.0,0.00,ESE,112,4.3,4.3,0,0.00,,,-99.99,Homeseer,2013-07-08 17:09:00,
2013-07-08 13:29:00,0.0,0.0,0.00,SSE,157,4.7,4.7,0,0.00,,,-99.99,Homeseer,2013-07-08 17:29:00,
2013-07-08 13:39:00,0.0,0.0,0.00,SE,135,3.4,5.4,0,0.00,,,-99.99,Homeseer,2013-07-08 17:39:00,
2013-07-08 13:49:00,0.0,0.0,0.00,SE,135,6.3,6.3,0,0.00,,,-99.99,Homeseer,2013-07-08 17:49:00,
2013-07-08 13:59:00,0.0,0.0,0.00,SSE,157,3.4,4.7,0,0.00,,,-99.99,Homeseer,2013-07-08 17:59:00,
2013-07-08 14:29:00,0.0,0.0,0.00,ESE,112,4.9,6.3,0,0.00,,,-99.99,Homeseer,2013-07-08 18:29:00,
2013-07-08 14:39:00,0.0,0.0,0.00,SE,135,6.3,6.3,0,0.00,,,-99.99,Homeseer,2013-07-08 18:39:00,
2013-07-08 14:59:00,0.0,0.0,0.00,South,180,5.6,6.5,0,0.00,,,-99.99,Homeseer,2013-07-08 18:59:00,
2013-07-08 15:09:00,0.0,0.0,0.00,SSE,157,5.8,5.8,0,0.00,,,-99.99,Homeseer,2013-07-08 19:09:00,
2013-07-08 15:19:00,0.0,0.0,0.00,North,0,4.0,4.9,0,0.00,,,-99.99,Homeseer,2013-07-08 19:19:00,
2013-07-08 15:39:00,0.0,0.0,0.00,ESE,112,4.5,4.5,0,0.00,,,-99.99,Homeseer,2013-07-08 19:39:00,
2013-07-08 15:49:00,0.0,0.0,0.00,ESE,112,5.4,6.3,0,0.00,,,-99.99,Homeseer,2013-07-08 19:49:00,
2013-07-08 15:59:00,0.0,0.0,0.00,SSE,157,2.2,2.2,0,0.00,,,-99.99,Homeseer,2013-07-08 19:59:00,
2013-07-08 16:09:00,0.0,0.0,0.00,SE,135,5.4,5.4,0,0.00,,,-99.99,Homeseer,2013-07-08 20:09:00,
2013-07-08 16:19:00,0.0,0.0,0.00,ESE,112,3.4,5.8,0,0.00,,,-99.99,Homeseer,2013-07-08 20:19:00,
2013-07-08 16:39:00,0.0,0.0,0.00,North,0,2.2,2.2,0,0.00,,,-99.99,Homeseer,2013-07-08 20:39:00,
2013-07-08 16:59:00,0.0,0.0,0.00,ESE,112,3.6,4.0,0,0.00,,,-99.99,Homeseer,2013-07-08 20:59:00,
2013-07-08 17:09:00,0.0,0.0,0.00,South,180,3.4,3.4,0,0.00,,,-99.99,Homeseer,2013-07-08 21:09:00,
2013-07-08 17:19:00,0.0,0.0,0.00,ESE,112,4.5,4.5,0,0.00,,,-99.99,Homeseer,2013-07-08 21:19:00,
2013-07-08 17:39:00,0.0,0.0,0.00,North,0,3.6,3.6,0,0.00,,,-99.99,Homeseer,2013-07-08 21:39:00,
2013-07-08 17:49:00,0.0,0.0,0.00,East,90,3.6,4.3,0,0.00,,,-99.99,Homeseer,2013-07-08 21:49:00,
2013-07-08 17:59:00,0.0,0.0,0.00,ESE,112,3.6,3.8,0,0.00,,,-99.99,Homeseer,2013-07-08 21:59:00,
2013-07-08 18:09:00,0.0,0.0,0.00,East,90,9.2,10.7,0,0.00,,,-99.99,Homeseer,2013-07-08 22:09:00,
2013-07-08 18:19:00,0.0,0.0,0.00,North,0,0.9,0.0,0,2.16,,,-99.99,Homeseer,2013-07-08 22:19:00,
2013-07-08 18:39:00,0.0,0.0,0.00,North,0,0.0,0.0,0,2.16,,,-99.99,Homeseer,2013-07-08 22:39:00,
2013-07-08 18:49:00,0.0,0.0,0.00,North,0,0.0,0.0,0,2.16,,,-99.99,Homeseer,2013-07-08 22:49:00,
2013-07-08 19:19:00,0.0,0.0,0.00,NNE,22,0.0,0.0,0,2.16,,,-99.99,Homeseer,2013-07-08 23:19:00,
2013-07-08 19:49:00,0.0,0.0,0.00,East,90,2.2,2.5,0,2.16,,,-99.99,Homeseer,2013-07-08 23:49:00,
2013-07-08 19:59:00,0.0,0.0,0.00,ESE,112,2.0,2.0,0,2.16,,,-99.99,Homeseer,2013-07-08 23:59:00,
2013-07-08 20:19:00,0.0,0.0,0.00,ESE,112,2.0,2.9,0,2.16,,,-99.99,Homeseer,2013-07-09 00:19:00,
2013-07-08 20:29:00,0.0,0.0,0.00,East,90,2.0,2.0,0,0.00,,,-99.99,Homeseer,2013-07-09 00:29:00,
2013-07-08 20:39:00,0.0,0.0,0.00,East,90,2.9,3.1,0,0.00,,,-99.99,Homeseer,2013-07-09 00:39:00,
2013-07-08 20:59:00,0.0,0.0,0.00,SE,135,2.7,2.7,0,0.00,,,-99.99,Homeseer,2013-07-09 00:59:00,
2013-07-08 21:09:00,0.0,0.0,0.00,SE,135,2.2,2.5,0,0.00,,,-99.99,Homeseer,2013-07-09 01:09:00,
2013-07-08 21:39:00,0.0,0.0,0.00,SSE,157,2.0,2.0,0,0.00,,,-99.99,Homeseer,2013-07-09 01:39:00,
2013-07-08 21:49:00,0.0,0.0,0.00,ESE,112,2.2,2.9,0,0.00,,,-99.99,Homeseer,2013-07-09 01:49:00,
2013-07-08 22:09:00,0.0,0.0,0.00,SSE,157,4.0,4.9,0,0.00,,,-99.99,Homeseer,2013-07-09 02:09:00,
2013-07-08 22:19:00,0.0,0.0,0.00,ESE,112,3.1,3.1,0,0.00,,,-99.99,Homeseer,2013-07-09 02:19:00,
2013-07-08 22:59:00,0.0,0.0,0.00,ESE,112,2.9,3.4,0,0.00,,,-99.99,Homeseer,2013-07-09 02:59:00,
2013-07-08 23:09:00,0.0,0.0,0.00,SSE,157,3.6,4.0,0,0.00,,,-99.99,Homeseer,2013-07-09 03:09:00,
2013-07-08 23:49:00,0.0,0.0,0.00,South,180,2.2,2.2,0,0.00,,,-99.99,Homeseer,2013-07-09 03:49:00,
2013-07-08 23:59:00,0.0,0.0,0.00,SSE,157,2.7,2.7,0,0.00,,,-99.99,Homeseer,2013-07-09 03:59:00,